DW6233 Weather Reports


Display with metric or nautical units.
time (UTC)temp
F
wind
direction
speed
MPH
gust
MPH
rain 1hr
in
rain 24hr
in
rain mn
in
humidity
%
barometer
mb
20260902163033 56 7 16.0 25.0 0.00 0.00 0.00 89 1014.7
20260902160025 56 15 17.0 26.0 0.00 0.00 0.00 89 1014.6
20260902154531 56 9 14.0 22.0 0.00 0.00 0.00 89 1014.4
20260902153023 56 20 14.0 35.0 0.00 0.00 0.00 89 1014.4
20260902151623 56 12 24.0 35.0 0.00 0.00 0.00 89 1014.1
20260902150002 56 8 18.0 28.0 0.00 0.00 0.00 89 1014.4
20260902144518 56 353 19.0 30.0 0.00 0.00 0.00 88 1014.5
20260902143102 56 7 20.0 32.0 0.00 0.00 0.00 88 1014.7
20260902141600 56 356 24.0 34.0 0.00 0.00 0.00 88 1014.9
20260902140058 56 337 21.0 33.0 0.00 0.00 0.00 88 1014.9
20260902134600 56 351 22.0 38.0 0.00 0.00 0.00 88 1014.9
20260902133051 57 345 19.0 32.0 0.00 0.00 0.00 87 1014.9
20260902131502 56 351 18.0 31.0 0.00 0.00 0.00 88 1015.0
20260902130100 56 339 18.0 31.0 0.00 0.00 0.00 88 1014.4
20260902124608 56 323 18.0 29.0 0.00 0.00 0.00 88 1014.6
20260902123101 56 332 18.0 31.0 0.00 0.00 0.00 88 1014.2
20260902121531 56 357 19.0 30.0 0.00 0.00 0.00 88 1013.9
20260902120028 56 331 15.0 29.0 0.00 0.00 0.00 88 1014.1
20260902113047 56 309 13.0 35.0 0.00 0.00 0.00 87 1014.3
20260902111519 56 322 25.0 34.0 0.00 0.00 0.00 87 1014.0
20260902110037 56 329 19.0 34.0 0.00 0.00 0.00 87 1014.5
20260902104536 56 335 19.0 37.0 0.00 0.00 0.00 87 1014.7
20260902103024 56 337 21.0 33.0 0.00 0.00 0.00 87 1014.1
20260902100031 56 24 12.0 24.0 0.00 0.00 0.00 87 1015.1
20260902094536 56 334 12.0 27.0 0.00 0.00 0.00 87 1014.7
20260902091520 56 326 20.0 26.0 0.00 0.00 0.00 85 1013.9
20260902090051 56 10 14.0 25.0 0.00 0.00 0.00 83 1014.0
20260902084541 57 69 5.0 17.0 0.00 0.00 0.00 80 1014.2
20260902083029 56 17 17.0 28.0 0.00 0.00 0.00 84 1014.5
20260902081533 56 333 24.0 35.0 0.00 0.00 0.00 86 1014.3
20260902074528 56 301 16.0 26.0 0.00 0.00 0.00 87 1014.2
20260902073047 56 325 15.0 28.0 0.00 0.00 0.00 86 1014.0
20260902071509 56 348 22.0 37.0 0.00 0.00 0.00 87 1013.7
20260902070017 56 12 23.0 41.0 0.00 0.00 0.00 87 1013.3
20260902064525 56 331 18.0 30.0 0.00 0.00 0.00 86 1013.6
20260902063022 56 326 19.0 38.0 0.00 0.00 0.00 86 1013.9
20260902061555 56 351 24.0 37.0 0.00 0.00 0.00 84 1013.4
20260902060100 56 23 26.0 39.0 0.00 0.00 0.00 83 1013.4
20260902054539 57 348 26.0 44.0 0.00 0.00 0.00 81 1013.3
20260902053032 57 343 20.0 45.0 0.00 0.00 0.00 80 1013.4
20260902051531 57 354 26.0 49.0 0.00 0.00 0.00 80 1013.5
20260902050027 57 4 29.0 40.0 0.00 0.00 0.00 82 1013.1
20260902044600 56 343 24.0 43.0 0.00 0.00 0.00 83 1013.4
20260902043005 56 12 27.0 38.0 0.00 0.00 0.00 83 1013.4
20260902040010 56 349 17.0 40.0 0.00 0.00 0.00 84 1013.6
20260902034520 56 336 24.0 36.0 0.00 0.00 0.00 83 1013.5
20260902033010 56 310 21.0 39.0 0.00 0.00 0.00 83 1013.5
20260902031513 56 2 23.0 49.0 0.00 0.00 0.00 82 1013.3
20260902030007 56 16 21.0 36.0 0.00 0.00 0.00 82 1013.5
20260902024509 57 351 18.0 31.0 0.00 0.00 0.00 81 1013.7
20260902023007 57 22 15.0 23.0 0.00 0.00 0.00 82 1013.8
20260902021506 57 34 18.0 25.0 0.00 0.00 0.00 81 1013.7
20260902020004 57 330 18.0 29.0 0.00 0.00 0.00 81 1014.1
20260902014534 56 19 19.0 36.0 0.00 0.00 0.00 80 1014.3
20260902013025 57 3 19.0 28.0 0.00 0.00 0.00 78 1014.3
20260902011525 57 359 18.0 27.0 0.00 0.00 0.00 68 1014.5
20260902010032 57 12 20.0 28.0 0.00 0.00 0.00 68 1014.5
20260902004518 57 11 16.0 25.0 0.00 0.00 0.00 68 1014.5
20260902003058 58 5 20.0 33.0 0.00 0.00 0.00 69 1014.5
20260902001553 58 25 20.0 27.0 0.00 0.00 0.00 68 1014.5
20260902000047 58 360 18.0 29.0 0.00 0.00 0.00 71 1014.6
20260901234549 58 24 19.0 29.0 0.00 0.00 0.00 74 1014.5
20260901233023 58 34 19.0 24.0 0.00 0.00 0.00 75 1014.7
20260901230019 58 22 12.0 22.0 0.00 0.00 0.00 73 1014.7
20260901224525 57 36 16.0 23.0 0.00 0.00 0.00 70 1014.8
20260901223018 57 355 13.0 22.0 0.00 0.00 0.00 70 1014.7
20260901220108 57 9 11.0 24.0 0.00 0.00 0.00 66 1014.9
20260901214530 57 12 12.0 23.0 0.00 0.00 0.00 68 1014.8
20260901213032 57 356 14.0 21.0 0.00 0.00 0.00 70 1014.8
20260901211536 57 48 12.0 21.0 0.00 0.00 0.00 69 1014.8
20260901210027 57 7 12.0 22.0 0.00 0.00 0.00 69 1014.8
20260901204524 57 39 14.0 21.0 0.00 0.00 0.00 72 1014.8
20260901203042 57 345 14.0 22.0 0.00 0.00 0.00 74 1014.6
20260901201539 56 355 12.0 23.0 0.00 0.00 0.00 74 1014.7
20260901200032 56 17 13.0 27.0 0.00 0.00 0.00 73 1014.6
20260901194537 56 358 15.0 23.0 0.00 0.00 0.00 72 1014.2
20260901193027 55 11 12.0 20.0 0.00 0.00 0.00 73 1014.1
20260901191527 54 38 15.0 23.0 0.00 0.00 0.00 72 1013.7
20260901190026 54 359 10.0 19.0 0.00 0.00 0.00 73 1014.1
20260901184524 54 17 11.0 20.0 0.00 0.00 0.00 73 1014.0
20260901183028 54 18 9.0 19.0 0.00 0.00 0.00 73 1013.9
20260901181533 54 20 11.0 24.0 0.00 0.00 0.00 74 1013.9
20260901180022 54 16 11.0 16.0 0.00 0.00 0.00 75 1013.6
20260901174521 54 33 11.0 18.0 0.00 0.00 0.00 75 1013.6
20260901173019 54 45 10.0 21.0 0.00 0.00 0.00 75 1013.5
20260901171520 54 17 10.0 18.0 0.00 0.00 0.00 75 1013.3
20260901170051 53 42 7.0 13.0 0.00 0.00 0.00 77 1013.3
20260901164517 53 58 6.0 13.0 0.00 0.00 0.00 75 1013.2